Location: Newark
(48.1500°N, 2.9667°W)
Time: 04:46:59
(UTC+00:00)

Altair - Pass Details

Date: 04 February 2020
Orbit: 1502 x 1682 km, 47.2° (Epoch: 19 February)

Event Time Altitude Azimuth Distance (km) Brightness Sun altitude
Rises 11:50:31 0° 289° (WNW) 4,924 9.9 25.1°
Reaches altitude 10° 11:53:46 10° 285° (WNW) 3,943 9.5 25.2°
Maximum altitude 12:03:25 51° 214° (SSW) 2,029 9.1 25.4°
Drops below altitude 10° 12:12:59 10° 142° (SE) 3,903 10.6 25.5°
Sets 12:16:12 0° 137° (SE) 4,870 10.9 25.5°
